Location: Newark
(50.0306°N, 2.3272°E)
Time: 02:08:23
(UTC+00:00)

Transit 2A Rocket - Pass Details

Date: 13 December 2019
Orbit: 593 x 910 km, 66.7° (Epoch: 20 January)

Event Time Altitude Azimuth Distance (km) Brightness Sun altitude
Rises 17:32:17 0° 259° (WSW) 2,892 9.8 -15.6°
Reaches altitude 10° 17:35:02 10° 275° (W) 1,960 8.2 -16.0°
Maximum altitude 17:38:24 21° 326° (NW) 1,353 6.5 -16.5°
Enters shadow 17:41:22 12° 13° (NNE) 1,831 6.7 -17.0°
Drops below altitude 10° 17:41:44 10° 17° (NNE) 1,937 - -17.1°
Sets 17:44:26 0° 33° (NNE) 2,850 - -17.5°
